THOR 6

Last updated on Sat Dec 13 2025 00:02:47 GMT+0000 (Coordinated Universal Time)

1 36033U 09058B 25346.27619247 .00000000 00000+0 00000+0 0 9993 2 36033 0.0105 318.8465 0001783 320.0532 260.9088 1.00270939 59134
UTC large
Height (km)
Speed (km/s)
/
Latitude / Longitude
Inclination (degrees)
Orbital Period (minutes)
Azimuth
Elevation
Range (km)
Doppler Factor

Next 0 passes for location: London (51.5072 / 0.1276)

Sorry there are no passes over London.